CAPE
0 0 0 0 204 286 70 62 1 2 6 3 0 29 85 144 186 16 0 0 150 235 291 454 1205 1230 1415 1574 1713 1711 1722 1869 1653 1511 1330 1153 957 901 801 831 871 718 879 656 386 248 399 569 608
0 0 0 0 75 87 100 23 43 52 21 4 0 0 23 42 0 0 0 26 186 209 275 272 1040 1282 1377 1670 1505 1714 1699 1519 1547 1450 1233 1025 878 701 549 539 581 381 572 438 236 190 338 392 388
0 0 0 0 21 27 0 149 142 61 19 0 0 0 0 0 0 0 2 43 162 243 373 457 1065 1265 1262 1483 1529 1547 1541 1557 1579 1457 1153 1029 788 625 516 666 342 102 182 322 142 144 153 121 146
0 0 0 0 29 53 0 152 80 0 0 0 0 207 187 2 7 30 40 136 160 282 511 483 863 1126 1211 1156 1271 1233 1189 1133 1274 1378 1049 881 687 574 489 876 304 9 54 216 148 125 43 77 97
0 0 0 0 0 27 95 139 29 48 25 22 0 2 392 375 97 32 89 142 211 516 542 315 675 1015 1084 959 957 1056 1037 1099 1215 1219 1073 820 683 539 697 891 479 90 43 76 103 66 21 12 5
0 0 0 0 0 15 90 113 76 157 136 42 12 140 606 513 252 147 63 207 282 560 675 385 720 980 985 831 710 721 849 942 990 1003 833 748 692 588 524 613 458 163 57 15 0 0 0 0 0
0 0 0 0 0 99 114 252 306 226 212 136 55 164 614 605 532 541 324 285 480 658 887 657 442 433 544 370 335 394 551 636 642 576 462 433 548 554 461 379 359 182 40 0 0 0 0 0 0
0 0 0 0 0 110 126 399 384 284 378 122 41 337 329 706 511 505 681 1061 1060 1450 1254 1260 1071 553 342 281 227 291 318 374 460 322 202 194 351 429 412 404 208 71 0 0 0 0 0 0 0
0 0 0 0 0 159 230 460 523 495 394 172 34 19 746 560 528 633 668 582 624 850 1167 1211 988 963 977 922 295 205 309 362 357 314 143 196 518 297 207 63 229 214 84 6 0 0 0 0 0
0 0 0 0 0 159 262 497 531 500 422 271 182 687 480 425 354 228 311 455 655 873 953 1036 1095 1091 1002 678 568 904 488 614 608 390 228 124 59 28 0 4 58 109 127 98 65 18 0 0 0
0 0 0 0 0 0 134 308 570 571 471 309 278 280 137 56 34 27 12 71 217 464 684 1019 889 1103 777 406 391 240 222 238 320 181 265 265 62 140 5 19 63 241 22 8 14 13 35 3 0
0 0 0 0 0 0 232 287 344 529 440 247 144 60 11 20 19 16 17 16 53 294 499 604 791 1014 799 585 335 214 79 72 87 174 238 164 188 78 25 13 9 3 18 27 29 20 90 240 244
0 0 0 0 0 1 96 267 260 281 455 187 111 4 7 0 0 0 4 12 28 27 118 289 346 578 970 759 204 371 814 643 467 155 157 377 743 949 300 312 155 146 246 218 250 152 123 145 175
0 0 0 0 0 29 312 226 193 170 179 183 125 41 9 0 4 83 151 232 252 162 311 471 438 576 715 968 1103 828 380 226 72 9 1 0 105 441 352 409 393 328 286 700 603 692 671 412 374
0 0 0 0 0 3 124 136 152 186 144 179 183 149 99 80 85 229 338 382 397 415 351 534 291 256 263 227 255 84 6 0 0 0 0 0 0 1 24 127 145 109 157 122 209 354 517 522 607
0 0 0 0 0 0 78 52 55 289 217 235 264 182 125 74 183 281 349 367 350 346 409 422 320 505 268 234 165 136 68 102 13 0 14 0 0 3 1 0 3 10 0 0 0 0 6 102 243
0 0 0 3 0 1 50 12 21 127 236 290 259 181 153 237 327 365 351 372 359 280 359 568 560 453 399 265 188 188 96 88 34 9 12 53 10 13 10 8 2 2 0 0 0 0 0 0 0
0 0 26 24 0 0 39 18 6 70 266 301 252 210 170 329 367 349 336 264 131 157 320 404 601 699 617 358 226 148 182 172 102 119 107 59 43 12 29 2 0 0 0 0 0 0 0 0 0
0 6 26 43 23 0 11 55 0 35 212 224 206 175 144 279 338 317 266 136 157 227 367 549 670 680 824 522 512 263 400 96 29 31 8 16 22 1 0 0 0 0 0 0 0 0 0 0 0
0 0 12 41 54 0 0 53 0 0 44 130 114 54 19 90 254 257 148 13 0 0 48 146 204 265 426 483 178 57 6 19 36 14 9 2 0 0 0 0 0 0 0 0 0 0 0 0 0
0 0 0 17 0 0 3 26 0 0 2 17 2 1 0 3 103 67 1 0 0 0 0 55 164 193 13 153 10 1 11 32 20 2 0 0 0 0 0 0 0 0 0 0 0 0 0 0 0
0 0 0 2 8 14 0 30 10 0 0 0 0 0 0 0 0 0 0 0 0 0 0 0 0 0 3 101 1 0 0 1 0 0 0 0 0 0 0 0 0 0 0 0 0 0 0 0 0
0 0 0 0 28 22 34 30 3 3 0 0 0 0 0 0 0 0 0 0 0 0 0 0 0 0 0 0 0 0 0 0 0 0 0 0 0 0 0 0 0 0 0 0 0 0 0 0 0
0 0 0 0 3 90 82 11 0 4 0 0 0 0 0 0 0 0 0 0 0 0 0 0 0 0 0 0 0 0 0 0 0 0 0 0 0 0 0 0 0 0 0 0 0 0 0 0 0
0 0 0 0 26 0 0 78 0 22 5 0 0 0 0 0 0 0 0 0 0 0 0 0 0 0 0 0 0 0 0 0 0 0 0 0 0 0 0 0 0 0 0 0 0 0 0 0 0
0 0 0 0 0 0 0 16 0 5 16 37 0 0 0 0 0 0 0 0 0 0 0 0 0 0 0 0 0 0 0 0 0 0 0 0 0 0 0 0 0 0 0 0 0 0 0 0 0
0 0 0 5 3 31 2 0 3 47 38 26 13 0 0 0 0 0 0 0 0 0 0 0 0 0 0 0 0 0 0 0 0 0 0 0 0 0 0 0 0 0 0 0 0 0 0 0 0
0 0 1 41 0 0 4 26 29 23 16 48 14 2 0 0 0 0 0 0 0 0 0 0 0 0 0 0 0 0 0 0 0 0 0 0 0 0 0 0 0 0 0 0 0 0 0 0 0
0 0 0 6 48 99 0 17 9 24 16 3 25 14 0 0 0 0 0 0 0 0 0 0 0 0 0 0 0 0 0 0 0 0 0 0 0 0 0 0 0 0 0 0 0 0 0 0 0
0 0 0 120 0 40 66 9 11 31 65 99 2 0 30 0 0 0 0 0 0 0 0 0 0 0 0 0 0 0 0 0 0 0 0 0 0 0 0 0 0 0 0 0 0 0 0 0 0
CIN
0 0 0 0 -79 -17 -28 0 -1 -5 -45 -64 0 -52 -42 -48 -28 -14 0 0 -37 -48 -60 -53 -1 0 0 0 0 0 0 0 0 0 0 0 0 0 -3 -2 -2 -2 0 -1 -11 -23 -7 -4 -8
0 0 0 0 -42 -7 -3 -19 -5 -11 -70 -68 0 0 -28 -115 0 0 0 -90 -23 -36 -17 -53 -15 0 0 0 0 0 0 0 0 0 0 0 -1 -2 -2 -1 -3 -15 0 0 -18 -20 -12 -10 -21
0 0 0 0 -22 -3 -6 0 -11 -39 -83 0 0 0 0 0 0 0 -84 -104 -51 -12 0 -67 -15 -1 0 0 0 0 0 0 0 0 0 0 -1 -3 -2 0 -13 -43 -16 -1 -21 -28 -33 -60 -68
0 0 0 0 -3 -36 0 -1 -34 -13 0 0 0 -158 -203 -38 -236 -203 -160 -77 -58 -24 -1 -71 -24 0 0 0 0 0 -1 -2 0 0 0 0 0 -1 -2 0 -18 -17 -73 -20 -36 -38 -71 -86 -76
0 0 0 0 0 -9 -1 -1 -39 -23 -50 -47 0 -10 -183 -179 -221 -263 -163 -112 -72 -9 -12 -42 -37 -1 0 0 0 -1 -1 -1 0 0 0 0 0 0 0 0 -5 -70 -110 -83 -58 -94 -124 -110 -42
0 0 0 0 0 -3 -2 -10 -15 -16 -46 -57 -100 -138 -166 -179 -199 -192 -201 -125 -89 -21 -8 -32 -12 0 -1 -2 -6 -3 -1 0 0 0 0 0 0 0 0 0 -3 -45 -105 -100 0 0 0 0 0
0 0 0 0 0 -1 -4 -13 -11 -18 -35 -51 -98 -98 -198 -179 -191 -145 -140 -143 -91 -51 -10 -6 -17 -30 -11 -23 -21 -12 -3 -1 -3 -3 -4 -6 -3 -3 -12 -19 -19 -59 -156 0 0 0 0 0 0
0 0 0 0 0 -2 -4 -18 -25 -18 -32 -99 -93 -109 -200 -224 -254 -219 -102 -38 -35 -12 -11 -2 -1 -9 -22 -28 -38 -16 -11 -11 -15 -38 -55 -58 -41 -38 -32 -23 -32 -64 0 0 0 0 0 0 0
0 0 0 0 0 -1 -13 -13 -30 -82 -135 -147 -140 -87 -196 -284 -262 -186 -141 -108 -66 -36 -11 -3 -4 -1 0 -1 -46 -61 -39 -40 -42 -45 -67 -1 -9 -4 -27 -97 -49 -48 -85 -25 0 0 0 0 0
0 0 0 0 0 -4 -11 -1 -107 -78 -158 -158 -214 -258 -304 -295 -255 -258 -207 -127 -58 -19 -11 -7 -3 -1 -2 -14 -11 -5 -1 -1 -1 -1 -2 -6 -17 -7 0 -7 -103 -98 -96 -107 -125 -61 0 0 0
0 0 0 0 0 0 -36 -10 -59 -41 -89 -146 -226 -310 -358 -381 -353 -350 -351 -235 -156 -66 -27 -4 -3 0 -3 -29 -22 -39 -37 -20 -1 -14 -1 -2 -35 -4 0 -6 -6 -15 -118 -7 -39 -3 -51 -1 0
0 0 0 0 0 0 -9 -47 -108 -15 -31 -173 -253 -310 -334 -335 -315 -292 -304 -297 -209 -99 -42 -14 -1 0 -3 -3 -17 -46 -101 -93 -84 -37 -14 -18 -12 -31 -65 -10 -5 -5 0 -1 -2 0 -5 0 0
0 0 0 0 0 -9 -39 -100 -84 -141 -175 -240 -23 -272 -321 0 -181 0 -112 -298 -242 -229 -154 -67 -48 -9 -3 0 -49 -23 -6 -1 -3 -35 -23 -1 -1 -2 -1 -1 -14 -13 -2 -4 -1 -3 -6 -2 -2
0 0 0 0 0 -46 -38 -131 -118 -96 -206 -276 -24 -287 -306 -30 -238 -258 -193 -136 -103 -126 -71 -15 -28 -14 -1 -1 -1 -1 -3 -13 -89 -90 0 0 -22 0 0 -1 0 0 -1 -1 0 -1 0 -1 -1
0 0 0 0 0 -31 -63 -142 -139 -81 -44 -43 -244 -257 -284 -294 -284 -204 -118 -89 -61 -43 -78 -37 -94 -95 -65 -67 -39 -78 -171 -16 0 0 0 0 0 -4 -61 -2 -1 -2 0 -3 0 0 -1 -5 -5
0 0 0 0 0 0 -68 -45 -181 -72 -59 -195 -194 -237 -289 -305 -211 -153 -98 -71 -58 -97 -36 -20 -32 -28 -16 -57 -77 -44 -73 -29 -125 0 -51 0 0 -4 -3 0 -21 -17 -5 0 0 0 -3 -7 -2
0 0 0 -1 0 -39 -50 -27 -156 -135 -110 -132 -156 -227 -227 -165 -117 -94 -89 -66 -56 -112 -69 -26 -11 -8 -4 -18 -25 -24 -64 -46 -59 -70 -43 -8 -18 -14 -17 -20 -17 -13 0 0 0 0 0 0 0
0 0 0 -2 0 0 -44 -26 -152 -194 -103 -111 -145 -185 -159 -125 -96 -84 -82 -88 -150 -127 -109 -52 -15 0 0 -11 -27 -39 -32 -18 -29 -7 -10 -17 -12 -1 -11 -6 0 0 0 0 0 0 0 0 0
0 0 0 0 -11 0 -40 -35 -1 -221 -110 -90 -106 -181 -119 -103 -110 -83 -80 -113 -152 -123 -65 -26 -6 0 0 -1 -2 -16 -5 -42 -61 -85 -16 -16 -4 -4 0 0 0 0 0 0 0 0 0 0 0
0 0 0 0 -16 0 0 -2 0 0 -141 -146 -136 -203 -192 -172 -104 -84 -102 -137 0 0 -230 -121 -68 -40 -2 -16 -40 -79 -25 -12 -78 -1 -15 -6 0 0 0 0 0 0 0 0 0 0 0 0 0
0 0 0 0 -3 0 -7 -10 0 0 -25 -104 -123 -88 0 -62 -119 -133 -28 0 0 0 0 -172 -66 -48 -67 -61 -34 0 -2 0 -2 -1 0 0 0 0 0 0 0 0 0 0 0 0 0 0 0
0 0 0 0 -1 -3 0 0 0 0 0 0 0 0 0 0 0 0 0 0 0 0 0 0 0 0 0 -81 -1 0 0 -1 0 0 0 0 0 0 0 0 0 0 0 0 0 0 0 0 0
0 0 0 0 0 -3 -1 0 0 -1 0 0 0 0 0 0 0 0 0 0 0 0 0 0 0 0 0 0 0 0 0 0 0 0 0 0 0 0 0 0 0 0 0 0 0 0 0 0 0
0 0 0 0 0 0 -1 0 0 0 0 0 0 0 0 0 0 0 0 0 0 0 0 0 0 0 0 0 0 0 0 0 0 0 0 0 0 0 0 0 0 0 0 0 0 0 0 0 0
0 0 0 0 0 0 -1 0 0 0 -2 0 0 0 0 0 0 0 0 0 0 0 0 0 0 0 0 0 0 0 0 0 0 0 0 0 0 0 0 0 0 0 0 0 0 0 0 0 0
0 0 0 0 0 0 0 0 0 0 -7 -1 0 0 0 0 0 0 0 0 0 0 0 0 0 0 0 0 0 0 0 0 0 0 0 0 0 0 0 0 0 0 0 0 0 0 0 0 0
0 0 0 0 0 0 0 0 0 -1 -1 -3 -1 0 0 0 0 0 0 0 0 0 0 0 0 0 0 0 0 0 0 0 0 0 0 0 0 0 0 0 0 0 0 0 0 0 0 0 0
0 0 0 0 0 0 0 0 0 0 0 -2 -3 -9 0 0 0 0 0 0 0 0 0 0 0 0 0 0 0 0 0 0 0 0 0 0 0 0 0 0 0 0 0 0 0 0 0 0 0
0 0 0 0 0 0 0 0 -2 -1 -2 -10 -10 0 0 0 0 0 0 0 0 0 0 0 0 0 0 0 0 0 0 0 0 0 0 0 0 0 0 0 0 0 0 0 0 0 0 0 0
0 0 0 0 0 0 0 0 -1 -10 -3 -10 -25 0 -44 0 0 0 0 0 0 0 0 0 0 0 0 0 0 0 0 0 0 0 0 0 0 0 0 0 0 0 0 0 0 0 0 0 0
Wind_Speed
nan nan nan nan 4 14 nan nan nan nan nan nan nan nan nan 14 16 nan nan nan 11 13 12 10 5 4 6 4 1 3 5 8 9 8 7 7 8 10 10 10 12 10 12 8 6 5 3 4 6
nan nan nan nan nan nan 8 nan nan nan nan nan nan nan nan nan nan nan nan nan 10 12 13 11 6 4 3 4 3 5 8 8 8 8 8 9 7 7 7 7 7 8 7 6 6 5 4 1 7
nan nan nan nan nan nan nan 10 30 nan nan nan nan nan nan nan nan nan nan nan 10 10 10 7 5 5 3 2 2 4 7 9 9 8 7 6 5 4 6 5 4 3 2 2 2 3 3 4 6
nan nan nan nan nan nan nan 17 nan nan nan nan nan 5 5 nan nan nan nan 13 10 9 11 7 5 3 4 3 2 4 6 8 9 9 8 7 6 4 3 5 3 nan nan 3 4 4 nan nan nan
nan nan nan nan nan nan nan 31 nan nan nan nan nan nan 1 7 nan nan nan 13 11 8 7 8 4 4 6 5 5 6 6 7 7 8 10 10 11 8 4 5 5 nan nan nan 5 nan nan nan nan
nan nan nan nan nan nan nan 21 nan 21 18 nan nan 8 6 2 7 10 nan 10 9 8 10 9 5 5 5 5 6 6 6 6 7 7 8 9 10 9 9 9 8 6 nan nan nan nan nan nan nan
nan nan nan nan nan nan 27 15 12 18 17 17 nan 7 8 5 5 3 2 8 7 8 8 9 8 6 5 6 7 6 5 5 4 4 5 6 7 9 11 11 9 9 nan nan nan nan nan nan nan
nan nan nan nan nan 14 33 18 16 15 28 24 nan 9 11 12 8 7 6 8 5 6 1 2 6 10 10 9 7 7 7 7 7 6 6 10 11 11 11 11 8 nan nan nan nan nan nan nan nan
nan nan nan nan nan 22 35 19 34 33 23 22 nan nan 30 19 14 13 12 9 7 5 5 5 5 5 8 7 9 10 10 12 12 10 10 12 11 9 14 nan 4 3 nan nan nan nan nan nan nan
nan nan nan nan nan 38 33 28 26 29 27 27 37 41 36 24 19 16 15 14 12 12 9 8 7 6 6 10 8 9 9 11 8 6 7 9 nan nan nan nan nan 9 8 nan nan nan nan nan nan
nan nan nan nan nan nan 29 22 27 26 25 26 30 37 36 nan nan nan nan nan 12 11 10 10 9 7 7 7 7 7 7 8 8 5 3 5 nan 6 nan nan nan 14 nan nan nan nan nan nan nan
nan nan nan nan nan nan 36 46 23 27 42 32 32 nan nan nan nan nan nan nan nan 13 11 10 12 8 4 3 5 11 nan nan nan 12 5 8 7 nan nan nan nan nan nan nan nan nan nan 11 10
nan nan nan nan nan nan nan 35 44 45 38 37 34 nan nan nan nan nan nan nan nan nan 13 11 12 12 12 6 9 10 15 12 14 13 14 9 10 14 9 14 9 13 12 11 11 10 10 11 10
nan nan nan nan nan nan 33 43 41 40 39 37 33 nan nan nan nan nan 22 19 14 14 13 15 15 16 13 17 20 19 17 15 nan nan nan nan 15 17 13 17 18 18 18 21 18 19 18 15 17
nan nan nan nan nan nan 40 34 33 43 41 38 36 34 nan nan nan 26 24 25 22 21 21 23 23 20 21 24 21 nan nan nan nan nan nan nan nan nan nan 23 21 23 19 20 21 21 20 21 22
nan nan nan nan nan nan nan nan nan 40 40 37 38 37 36 nan 34 34 29 26 27 34 30 23 22 24 24 25 23 20 nan 20 nan nan nan nan nan nan nan nan nan nan nan nan nan nan nan 21 24
nan nan nan nan nan nan nan nan nan 36 39 40 39 38 37 38 37 37 34 33 31 39 34 31 28 28 28 27 28 28 nan nan nan nan nan nan nan nan nan nan nan nan nan nan nan nan nan nan nan
nan nan nan nan nan nan nan nan nan nan 37 40 39 40 40 39 39 40 39 39 41 41 37 36 33 33 32 30 29 30 30 31 32 34 32 nan nan nan nan nan nan nan nan nan nan nan nan nan nan
nan nan nan nan nan nan nan nan nan nan 36 38 39 42 41 43 45 44 45 43 45 44 40 39 38 36 33 30 30 30 29 nan nan nan nan nan nan nan nan nan nan nan nan nan nan nan nan nan nan
nan nan nan nan nan nan nan nan nan nan nan 35 39 nan nan nan 46 48 48 nan nan nan nan 43 42 38 32 32 31 nan nan nan nan nan nan nan nan nan nan nan nan nan nan nan nan nan nan nan nan
nan nan nan nan nan nan nan nan nan nan nan nan nan nan nan nan 49 nan nan nan nan nan nan nan 44 43 nan 40 nan nan nan nan nan nan nan nan nan nan nan nan nan nan nan nan nan nan nan nan nan
nan nan nan nan nan nan nan nan nan nan nan nan nan nan nan nan nan nan nan nan nan nan nan nan nan nan nan 38 nan nan nan nan nan nan nan nan nan nan nan nan nan nan nan nan nan nan nan nan nan
nan nan nan nan nan nan nan nan nan nan nan nan nan nan nan nan nan nan nan nan nan nan nan nan nan nan nan nan nan nan nan nan nan nan nan nan nan nan nan nan nan nan nan nan nan nan nan nan nan
nan nan nan nan nan nan nan nan nan nan nan nan nan nan nan nan nan nan nan nan nan nan nan nan nan nan nan nan nan nan nan nan nan nan nan nan nan nan nan nan nan nan nan nan nan nan nan nan nan
nan nan nan nan nan nan nan nan nan nan nan nan nan nan nan nan nan nan nan nan nan nan nan nan nan nan nan nan nan nan nan nan nan nan nan nan nan nan nan nan nan nan nan nan nan nan nan nan nan
nan nan nan nan nan nan nan nan nan nan nan nan nan nan nan nan nan nan nan nan nan nan nan nan nan nan nan nan nan nan nan nan nan nan nan nan nan nan nan nan nan nan nan nan nan nan nan nan nan
nan nan nan nan nan nan nan nan nan nan nan nan nan nan nan nan nan nan nan nan nan nan nan nan nan nan nan nan nan nan nan nan nan nan nan nan nan nan nan nan nan nan nan nan nan nan nan nan nan
nan nan nan nan nan nan nan nan nan nan nan nan nan nan nan nan nan nan nan nan nan nan nan nan nan nan nan nan nan nan nan nan nan nan nan nan nan nan nan nan nan nan nan nan nan nan nan nan nan
nan nan nan nan nan nan nan nan nan nan nan nan nan nan nan nan nan nan nan nan nan nan nan nan nan nan nan nan nan nan nan nan nan nan nan nan nan nan nan nan nan nan nan nan nan nan nan nan nan
nan nan nan 33 nan nan nan nan nan nan nan nan nan nan nan nan nan nan nan nan nan nan nan nan nan nan nan nan nan nan nan nan nan nan nan nan nan nan nan nan nan nan nan nan nan nan nan nan nan
Wind_Direction
nan nan nan nan 81 12 nan nan nan nan nan nan nan nan nan 191 181 nan nan nan 323 328 347 10 53 68 48 39 37 8 22 21 22 30 47 62 65 72 76 87 104 72 56 39 42 41 18 212 208
nan nan nan nan nan nan 259 nan nan nan nan nan nan nan nan nan nan nan nan nan 323 329 354 2 35 52 80 69 60 14 10 18 23 23 16 30 32 43 72 90 96 85 79 50 28 10 352 248 239
nan nan nan nan nan nan nan 254 255 nan nan nan nan nan nan nan nan nan nan nan 327 330 319 335 15 40 42 118 48 13 7 13 25 29 24 12 26 12 17 42 87 81 128 80 14 334 307 254 243
nan nan nan nan nan nan nan 251 nan nan nan nan nan 211 124 nan nan nan nan 2 358 334 288 324 349 17 36 28 12 358 15 28 35 36 31 23 28 34 37 354 356 nan nan 296 305 318 nan nan nan
nan nan nan nan nan nan nan 276 nan nan nan nan nan nan 324 77 nan nan nan 17 10 334 342 344 350 4 17 13 19 24 25 34 40 42 38 37 38 32 24 9 351 nan nan nan 294 nan nan nan nan
nan nan nan nan nan nan nan 279 nan 266 269 nan nan 277 202 89 348 356 nan 349 358 343 6 21 23 25 21 22 27 32 24 25 31 38 42 44 39 39 39 29 18 6 nan nan nan nan nan nan nan
nan nan nan nan nan nan 263 264 236 261 266 255 nan 257 258 303 278 354 337 341 352 345 332 9 20 31 49 44 42 39 37 35 28 25 29 37 39 34 28 21 14 20 nan nan nan nan nan nan nan
nan nan nan nan nan 271 266 249 226 259 240 262 nan 246 312 285 301 289 270 231 245 233 234 359 6 14 20 32 58 55 50 46 37 25 30 35 28 21 25 12 357 nan nan nan nan nan nan nan nan
nan nan nan nan nan 251 261 251 224 229 264 255 nan nan 272 286 295 295 289 285 283 264 290 333 2 9 13 6 6 19 27 37 32 24 45 69 49 13 0 nan 314 3 nan nan nan nan nan nan nan
nan nan nan nan nan 240 253 252 241 254 255 262 258 263 276 289 301 303 305 309 318 313 333 322 318 346 3 339 4 27 9 36 26 27 25 50 nan nan nan nan nan 359 9 nan nan nan nan nan nan
nan nan nan nan nan nan 246 254 249 254 256 257 268 279 282 nan nan nan nan nan 303 306 304 320 312 355 358 318 351 2 337 342 336 355 64 303 nan 327 nan nan nan 342 nan nan nan nan nan nan nan
nan nan nan nan nan nan 243 241 240 249 245 252 262 nan nan nan nan nan nan nan nan 300 302 299 313 285 248 289 339 281 nan nan nan 290 276 313 345 nan nan nan nan nan nan nan nan nan nan 293 307
nan nan nan nan nan nan nan 246 240 242 243 252 260 nan nan nan nan nan nan nan nan nan 292 309 288 292 295 319 304 280 262 266 269 274 272 255 255 263 264 266 274 265 265 274 285 284 285 275 283
nan nan nan nan nan nan 257 252 251 249 248 245 252 nan nan nan nan nan 257 255 260 259 282 275 288 296 302 257 267 274 269 291 nan nan nan nan 276 275 274 269 264 264 264 252 254 254 256 265 264
nan nan nan nan nan nan 251 253 233 253 252 252 256 257 nan nan nan 271 258 254 255 254 255 262 270 271 278 274 270 nan nan nan nan nan nan nan nan nan nan 271 267 264 265 269 270 271 273 282 284
nan nan nan nan nan nan nan nan nan 257 259 259 259 252 251 nan 255 254 258 260 264 264 265 267 272 273 273 274 272 274 nan 280 nan nan nan nan nan nan nan nan nan nan nan nan nan nan nan 285 277
nan nan nan nan nan nan nan nan nan 248 256 257 255 255 255 256 256 256 260 263 268 267 269 271 272 271 272 272 273 272 nan nan nan nan nan nan nan nan nan nan nan nan nan nan nan nan nan nan nan
nan nan nan nan nan nan nan nan nan nan 250 256 257 258 258 258 259 258 260 262 266 266 269 270 272 273 271 273 269 265 272 286 286 284 282 nan nan nan nan nan nan nan nan nan nan nan nan nan nan
nan nan nan nan nan nan nan nan nan nan 251 252 255 258 260 261 257 259 259 261 266 269 271 272 275 277 278 273 276 276 279 nan nan nan nan nan nan nan nan nan nan nan nan nan nan nan nan nan nan
nan nan nan nan nan nan nan nan nan nan nan 252 252 nan nan nan 258 258 262 nan nan nan nan 275 277 279 277 275 269 nan nan nan nan nan nan nan nan nan nan nan nan nan nan nan nan nan nan nan nan
nan nan nan nan nan nan nan nan nan nan nan nan nan nan nan nan 258 nan nan nan nan nan nan nan 278 279 nan 276 nan nan nan nan nan nan nan nan nan nan nan nan nan nan nan nan nan nan nan nan nan
nan nan nan nan nan nan nan nan nan nan nan nan nan nan nan nan nan nan nan nan nan nan nan nan nan nan nan 282 nan nan nan nan nan nan nan nan nan nan nan nan nan nan nan nan nan nan nan nan nan
nan nan nan nan nan nan nan nan nan nan nan nan nan nan nan nan nan nan nan nan nan nan nan nan nan nan nan nan nan nan nan nan nan nan nan nan nan nan nan nan nan nan nan nan nan nan nan nan nan
nan nan nan nan nan nan nan nan nan nan nan nan nan nan nan nan nan nan nan nan nan nan nan nan nan nan nan nan nan nan nan nan nan nan nan nan nan nan nan nan nan nan nan nan nan nan nan nan nan
nan nan nan nan nan nan nan nan nan nan nan nan nan nan nan nan nan nan nan nan nan nan nan nan nan nan nan nan nan nan nan nan nan nan nan nan nan nan nan nan nan nan nan nan nan nan nan nan nan
nan nan nan nan nan nan nan nan nan nan nan nan nan nan nan nan nan nan nan nan nan nan nan nan nan nan nan nan nan nan nan nan nan nan nan nan nan nan nan nan nan nan nan nan nan nan nan nan nan
nan nan nan nan nan nan nan nan nan nan nan nan nan nan nan nan nan nan nan nan nan nan nan nan nan nan nan nan nan nan nan nan nan nan nan nan nan nan nan nan nan nan nan nan nan nan nan nan nan
nan nan nan nan nan nan nan nan nan nan nan nan nan nan nan nan nan nan nan nan nan nan nan nan nan nan nan nan nan nan nan nan nan nan nan nan nan nan nan nan nan nan nan nan nan nan nan nan nan
nan nan nan nan nan nan nan nan nan nan nan nan nan nan nan nan nan nan nan nan nan nan nan nan nan nan nan nan nan nan nan nan nan nan nan nan nan nan nan nan nan nan nan nan nan nan nan nan nan
nan nan nan 233 nan nan nan nan nan nan nan nan nan nan nan nan nan nan nan nan nan nan nan nan nan nan nan nan nan nan nan nan nan nan nan nan nan nan nan nan nan nan nan nan nan nan nan nan nan